Tracking 19709 objects as of 18-Jun-2019
HD Live streaming from Space Station
objects crossing your sky now

GSLV R/B

Track GSLV R/B now!
10-day predictions


NORAD ID: 43242
Int'l Code: 2018-027B
Perigee: 146.4 km
Apogee: 21,329.6 km
Inclination: 20.4 °
Period: 371.2 minutes
Semi major axis: 17109 km
RCS: Unknown
Launch date: March 29, 2018
Source: India (IND)
Launch site: SRIHARIKOTA (SRI)

Note: This is a ROCKET BODY
aabbcc
Your satellite tracking list
Your tracking list is empty




NASA's NSSDC Master Catalog

Two Line Element Set (TLE):
1 43242U 18027B   19168.00145050  .00091526 -36588-8  18714-3 0  9999
2 43242  20.3908  36.9461 6190640 292.5761  15.0382  3.87939906 13722
Source of the keplerian elements: AFSPC